Ana Sayfa
METAR-TAF:

METAR-TAF

Havaalanları :

Coleman, Teksas, Amerika Birleşik Devletleri

Enlem: 31-50-28N, Boylam: 099-24-12W, yükseklik: 517 m

Güncel hava durumu gözlemi

Rapor saat 20:55 UTC de 24 dakika önce yapıldı.
Rüzgar güneydan 13 kt ve 20 kt'a kadar ani rüzgarlar
Sıcaklık 20°C
Nem 19%
Basınç 1018 hPa
Görüş mesafesi: 16.1 km
Açık gökyüzü

METAR: KCOM 162055Z AUTO 18013G20KT 10SM CLR 20/M04 A3006 RMK AO2 T02031036

Saat: 14:19 (21:19 UTC)


TAF: eksik

4.000'den fazla havaalanı için hava durumu gözlemleri ve tahminleri (METAR ve TAF raporları).

Kullanılabilir istasyonlar harita üzerinde sarı ve kırmızı noktalarla gösterilir.

İstasyonun adını görmek için fareyi noktanın üzerinde gezdirin.

Sonrasında hava gözlem ve tahminlerini görmek için tıklayın.

Haritayı değiştirmek için: yaklaştırmak için siyah artı işaretli yeşil düğmeye ve uzaklaştırmak için de eksi işaretli düğmeye hızla tıklayın; bitişik haritalar için yeşil okları kullanın.


METAR-TAF: